Valladolid Airport, Spain

10:34 AM CEST on June 25, 2017 (GMT +0200)
Villanubla

Weather History for LEVD - December, 2012

Change the Weather History Date:

Sunday, December 2, 2012

  Actual Average Record
Temperature  
Mean Temperature 32 °F -  
Max Temperature 42 °F - - ()
Min Temperature 23 °F - - ()
Degree Days  
Heating Degree Days 32    
Moisture  
Dew Point 29 °F    
Average Humidity 82    
Maximum Humidity 100    
Minimum Humidity 57    
Precipitation  
Precipitation 0.00 in - - ()
Sea Level Pressure  
Sea Level Pressure 30.28 in    
Wind  
Wind Speed 4 mph ()    
Max Wind Speed 9 mph    
Max Gust Speed -    
Visibility 6.2 miles    
Events      
T = Trace of Precipitation, MM = Missing Value Source: Averaged Metar Reports

Daily Weather History Graph

Daily Weather History Graph

Search for Another Location

Airport or City:

Trip Planner

Search our weather history database for the weather conditions in past years. The results will help you decide how hot, cold, wet, or windy it might be!

Date:

Astronomy

Dec. 02, 2012 Rise Set
Actual Time 8:28 AM CET 5:49 PM CET
Civil Twilight 7:57 AM CET 6:20 PM CET
Nautical Twilight 7:22 AM CET 6:55 PM CET
Astronomical Twilight 6:49 AM CET 7:28 PM CET
Moon 9:24 PM CET (12/2) 11:08 AM CET (12/2)
Length of Visible Light 10h 23m
Length of Day
9h 21m
Waning Gibbous, 87% of the Moon is Illuminated
Dec 2
Waning Gibbous
Dec 6
Last Quarter
Dec 13
New
Dec 20
First Quarter
Dec 28
Full

Hourly Weather History & Observations

Time (CET) Temp. Windchill Dew Point Humidity Pressure Visibility Wind Dir Wind Speed Gust Speed Precip Events Conditions
6:00 AM 26.6 °F 21.2 °F 26.6 °F 100% 30.18 in - North 4.6 mph - N/A   Clear
6:30 AM 23.0 °F 14.7 °F 23.0 °F 100% 30.18 in - North 6.9 mph - N/A   Clear
7:00 AM 24.8 °F 20.5 °F 24.8 °F 100% 30.21 in - NNW 3.5 mph - N/A   Clear
8:00 AM 24.8 °F 20.5 °F 24.8 °F 100% 30.21 in - NNW 3.5 mph - N/A   Clear
8:30 AM 24.8 °F 20.5 °F 24.8 °F 100% 30.24 in - North 3.5 mph - N/A   Clear
9:00 AM 24.8 °F 19.1 °F 24.8 °F 100% 30.24 in - NNW 4.6 mph - N/A   Clear
9:30 AM 28.4 °F 23.3 °F 28.4 °F 100% 30.24 in - NNW 4.6 mph - N/A   Clear
10:00 AM 32.0 °F - 30.2 °F 93% 30.27 in - Variable 1.2 mph - N/A   Clear
10:30 AM 32.0 °F 28.7 °F 32.0 °F 100% 30.27 in - NW 3.5 mph - N/A   Clear
11:00 AM 35.6 °F - 32.0 °F 87% 30.30 in - NW 2.3 mph - N/A   Clear
11:30 AM 37.4 °F - 32.0 °F 81% 30.30 in - Variable 2.3 mph - N/A   Clear
12:00 PM 39.2 °F - 32.0 °F 75% 30.30 in - Variable 2.3 mph - N/A   Clear
12:30 PM 39.2 °F 37.0 °F 32.0 °F 75% 30.30 in - WNW 3.5 mph - N/A   Clear
1:00 PM 41.0 °F 39.0 °F 32.0 °F 70% 30.30 in 6.2 mi WNW 3.5 mph - N/A   Partly Cloudy
1:30 PM 41.0 °F 37.1 °F 32.0 °F 70% 30.30 in 6.2 mi WNW 5.8 mph - N/A   Partly Cloudy
2:00 PM 42.8 °F 40.1 °F 32.0 °F 66% 30.27 in 6.2 mi West 4.6 mph - N/A   Partly Cloudy
2:30 PM 42.8 °F 40.1 °F 32.0 °F 66% 30.27 in 6.2 mi West 4.6 mph - N/A   Partly Cloudy
3:00 PM 42.8 °F 39.3 °F 28.4 °F 57% 30.27 in 6.2 mi NW 5.8 mph - N/A   Partly Cloudy
3:30 PM 42.8 °F 40.1 °F 28.4 °F 57% 30.27 in 6.2 mi WNW 4.6 mph - N/A   Partly Cloudy
4:00 PM 42.8 °F 38.6 °F 28.4 °F 57% 30.27 in 6.2 mi NW 6.9 mph - N/A   Partly Cloudy
4:30 PM 42.8 °F 37.5 °F 28.4 °F 57% 30.27 in 6.2 mi NW 9.2 mph - N/A   Partly Cloudy
5:00 PM 41.0 °F 36.4 °F 30.2 °F 65% 30.27 in 6.2 mi NW 6.9 mph - N/A   Partly Cloudy
5:30 PM 39.2 °F 37.0 °F 30.2 °F 70% 30.30 in 6.2 mi NW 3.5 mph - N/A   Partly Cloudy
6:00 PM 37.4 °F - 30.2 °F 75% 30.30 in 6.2 mi West 2.3 mph - N/A   Partly Cloudy
6:30 PM 37.4 °F - 30.2 °F 75% 30.30 in 6.2 mi West 2.3 mph - N/A   Partly Cloudy
7:00 PM 35.6 °F - 30.2 °F 81% 30.30 in 6.2 mi WSW 1.2 mph - N/A   Partly Cloudy
7:30 PM 33.8 °F 30.8 °F 30.2 °F 87% 30.30 in - SSW 3.5 mph - N/A   Clear
8:00 PM 33.8 °F - 30.2 °F 87% 30.33 in - WSW 2.3 mph - N/A   Clear
8:30 PM 33.8 °F 30.8 °F 30.2 °F 87% 30.33 in - SW 3.5 mph - N/A   Clear
9:00 PM 32.0 °F 28.7 °F 28.4 °F 87% 30.33 in - SW 3.5 mph - N/A   Clear
9:30 PM 32.0 °F 26.4 °F 28.4 °F 87% 30.33 in - WSW 5.8 mph - N/A   Clear
10:00 PM 30.2 °F 25.4 °F 28.4 °F 93% 30.33 in - WSW 4.6 mph - N/A   Clear
10:30 PM 28.4 °F 22.2 °F 26.6 °F 93% 30.33 in - WSW 5.8 mph - N/A   Clear